AE7VB Weather Reports


time (UTC)temp
C
wind
direction
speed
KPH
gust
KPH
rain 1hr
cm
rain 24hr
cm
rain mn
cm
humidity
%
barometer
mb
20260503184124 22 32 3.2 6.4 0.00 0.00 0.00 37 1020.1
20260503183052 21 107 3.2 8.0 0.00 0.00 0.00 39 1020.1
20260503182052 21 18 4.8 8.0 0.00 0.00 0.00 39 1020.0
20260503181051 21 23 3.2 8.0 0.00 0.00 0.00 41 1020.4
20260503180019 21 54 1.6 6.4 0.00 0.00 0.00 41 1020.4
20260503175018 20 73 1.6 6.4 0.00 0.00 0.00 41 1020.4
20260503174017 21 31 1.6 6.4 0.00 0.00 0.00 41 1020.7
20260503173016 20 34 3.2 6.4 0.00 0.00 0.00 45 1020.7
20260503172016 19 74 0.0 4.8 0.00 0.00 0.00 48 1020.6
20260503171015 18 66 1.6 4.8 0.00 0.00 0.00 50 1020.3
20260503150656 14 24 1.6 6.4 0.00 0.00 0.00 57 1019.9
20260503130541 7 131 3.2 4.8 0.00 0.00 0.00 75 1020.3
20260503110459 8 147 0.0 6.4 0.00 0.00 0.00 70 1020.9
20260503090314 10 218 1.6 4.8 0.00 0.00 0.00 65 1020.7
20260503081205 11 222 3.2 8.0 0.00 0.00 0.00 61 1020.9
20260503080204 10 223 3.2 9.7 0.00 0.00 0.00 63 1020.5
20260503072200 11 163 0.0 0.0 0.00 0.00 0.00 64 1020.4
20260503071159 11 163 0.0 0.0 0.00 0.00 0.00 63 1020.4
20260503070158 11 163 0.0 0.0 0.00 0.00 0.00 63 1020.3
20260503060121 12 163 0.0 0.0 0.00 0.00 0.00 59 1020.3
20260503055121 12 162 0.0 0.0 0.00 0.00 0.00 59 1020.2
20260503054120 12 151 0.0 3.2 0.00 0.00 0.00 59 1020.2
20260503053119 12 152 0.0 8.0 0.00 0.00 0.00 58 1020.1
20260503052118 12 151 3.2 8.0 0.00 0.00 0.00 57 1020.0
20260503051045 12 153 1.6 8.0 0.00 0.00 0.00 56 1020.0
20260503050043 12 153 3.2 8.0 0.00 0.00 0.00 56 1019.9
20260503045042 12 174 1.6 4.8 0.00 0.00 0.00 55 1019.7
20260503044042 12 175 3.2 4.8 0.00 0.00 0.00 53 1019.7
20260503043040 13 178 1.6 4.8 0.00 0.00 0.00 52 1019.8
20260503042039 13 180 1.6 4.8 0.00 0.00 0.00 50 1019.3
20260503041037 13 183 1.6 4.8 0.00 0.00 0.00 49 1019.2
20260503040036 13 184 3.2 4.8 0.00 0.00 0.00 49 1019.1
20260503035004 13 185 1.6 4.8 0.00 0.00 0.00 49 1018.7
20260503034003 13 185 1.6 4.8 0.00 0.00 0.00 49 1018.7
20260503033002 13 194 1.6 4.8 0.00 0.00 0.00 50 1018.7
20260503032000 13 195 1.6 4.8 0.00 0.00 0.00 51 1018.4
20260503031000 14 259 1.6 3.2 0.00 0.00 0.00 50 1018.5
20260503025958 15 259 1.6 3.2 0.00 0.00 0.00 48 1018.6
20260503024926 16 259 1.6 3.2 0.00 0.00 0.00 48 1018.8
20260503023926 17 287 0.0 3.2 0.00 0.00 0.00 46 1018.7
20260503022925 18 287 1.6 3.2 0.00 0.00 0.00 42 1019.2
20260503021923 20 288 0.0 1.6 0.00 0.00 0.00 42 1019.5
20260503020922 21 289 0.0 3.2 0.00 0.00 0.00 27 1019.2
20260503015850 21 288 1.6 6.4 0.00 0.00 0.00 26 1019.2
20260503014848 22 288 1.6 6.4 0.00 0.00 0.00 25 1019.1
20260503013847 22 292 1.6 4.8 0.00 0.00 0.00 27 1019.0
20260503012815 22 340 0.0 3.2 0.00 0.00 0.00 25 1018.9
20260503011814 22 341 1.6 3.2 0.00 0.00 0.00 24 1018.9
20260503010812 22 303 1.6 6.4 0.00 0.00 0.00 25 1019.1
20260503005810 22 294 3.2 6.4 0.00 0.00 0.00 24 1019.1
20260503004809 22 312 3.2 4.8 0.00 0.00 0.00 24 1019.0
20260503003808 22 339 1.6 8.0 0.00 0.00 0.00 26 1019.1
20260503002807 22 297 3.2 8.0 0.00 0.00 0.00 27 1019.2
20260503001806 22 296 3.2 8.0 0.00 0.00 0.00 28 1019.1
20260503000805 22 358 3.2 6.4 0.00 0.00 0.00 28 1019.1
20260502235804 22 15 1.6 6.4 0.00 0.00 0.00 29 1019.1
20260502234804 22 14 1.6 6.4 0.00 0.00 0.00 35 1019.2
20260502233802 22 52 1.6 6.4 0.00 0.00 0.00 36 1019.2
20260502232728 22 358 1.6 16.1 0.00 0.00 0.00 35 1019.2
20260502231727 22 8 3.2 16.1 0.00 0.00 0.00 38 1019.7
20260502230726 22 297 3.2 14.5 0.00 0.00 0.00 39 1019.9
20260502225726 22 294 1.6 14.5 0.00 0.00 0.00 37 1020.1
20260502224724 23 17 1.6 11.3 0.00 0.00 0.00 35 1020.3
20260502223723 23 275 4.8 14.5 0.00 0.00 0.00 33 1020.3
20260502222619 23 284 3.2 16.1 0.00 0.00 0.00 27 1020.5
20260502221618 23 281 4.8 14.5 0.00 0.00 0.00 29 1020.4
20260502220617 23 294 6.4 16.1 0.00 0.00 0.00 31 1020.3
20260502215616 23 235 4.8 16.1 0.00 0.00 0.00 29 1020.4
20260502214615 23 296 3.2 16.1 0.00 0.00 0.00 29 1020.4
20260502213614 23 299 4.8 11.3 0.00 0.00 0.00 32 1020.5
20260502212613 23 282 4.8 16.1 0.00 0.00 0.00 36 1020.6
20260502211612 23 276 3.2 14.5 0.00 0.00 0.00 34 1020.6
20260502210611 22 286 3.2 14.5 0.00 0.00 0.00 33 1020.9
20260502205610 22 306 4.8 6.4 0.00 0.00 0.00 37 1021.0
20260502204609 22 6 3.2 14.5 0.00 0.00 0.00 39 1020.9
20260502203608 22 296 4.8 14.5 0.00 0.00 0.00 43 1021.0
20260502202607 21 11 1.6 4.8 0.00 0.00 0.00 43 1021.2
20260502201605 21 38 3.2 4.8 0.00 0.00 0.00 43 1021.2
20260502200604 21 55 1.6 4.8 0.00 0.00 0.00 45 1021.2
20260502195603 21 29 1.6 4.8 0.00 0.00 0.00 47 1021.2
20260502194602 21 21 1.6 4.8 0.00 0.00 0.00 45 1021.5
20260502193601 21 33 1.6 4.8 0.00 0.00 0.00 47 1021.4
20260502192600 20 30 1.6 6.4 0.00 0.00 0.00 48 1021.3
20260502191528 20 83 3.2 6.4 0.00 0.00 0.00 46 1021.7
20260502190527 20 20 1.6 8.0 0.00 0.00 0.00 49 1021.8
20260502185525 20 22 1.6 8.0 0.00 0.00 0.00 48 1021.7